Vorticity
6 7 7 7 11 10 10 9 10 12 12 11 11 10 9 7 8 10 11 6 5 4 16 23 23 20 23
7 7 11 10 9 8 10 14 13 13 11 11 10 10 8 5 9 8 5 8 11 6 19 21 19 21 22
5 8 8 9 9 12 13 12 12 11 10 8 9 8 3 8 7 5 4 5 5 12 22 18 18 18 17
7 10 11 13 12 15 10 12 13 10 9 10 10 -1 11 5 3 2 4 4 5 19 20 17 17 16 15
15 15 15 12 13 10 13 7 9 9 8 6 4 6 8 0 2 2 2 2 4 24 19 17 13 12 11
11 13 13 13 16 16 13 15 12 6 5 6 14 7 8 3 1 2 5 4 7 21 17 14 12 14 18
13 13 11 9 11 14 12 11 7 18 20 19 6 2 5 7 3 4 4 6 9 18 17 14 14 22 24
8 9 7 7 4 5 5 3 6 8 3 4 7 8 6 6 4 4 5 7 11 18 15 15 20 13 10
3 4 5 6 7 6 6 6 5 7 6 4 9 7 5 4 5 5 7 7 13 18 15 19 11 5 7
6 5 4 6 7 9 12 7 10 5 8 5 6 6 5 5 7 7 9 10 17 17 16 18 6 8 13
16 19 21 22 21 20 18 12 14 9 12 10 9 8 8 8 7 11 11 13 18 16 17 12 6 10 14
42 44 44 43 40 39 26 -1 46 38 51 43 24 17 18 14 13 15 11 19 18 15 17 9 7 13 18
31 33 37 37 36 38 44 -3 27 -1 6 11 28 33 25 25 22 18 19 18 14 15 17 6 7 18 16
25 29 31 31 34 36 47 9 12 -4 6 -3 25 22 18 20 20 21 17 15 15 17 17 1 16 19 9
20 26 28 30 29 30 21 48 -2 25 3 17 5 18 17 16 15 16 18 18 17 19 9 6 17 11 13
30 27 37 10 17 21 12 40 20 -4 9 -8 4 29 22 19 19 21 21 14 18 12 7 14 9 15 17
46 4 43 2 3 23 31 -17 10 25 13 -2 -4 26 20 15 20 14 12 17 12 11 13 11 16 18 16
Height
5641 5636 5634 5630 5625 5621 5618 5615 5612 5608 5606 5603 5602 5599 5596 5594 5590 5588 5586 5583 5580 5577 5572 5568 5564 5563 5561
5624 5619 5614 5610 5606 5602 5599 5596 5593 5590 5588 5586 5583 5582 5580 5577 5574 5571 5568 5565 5561 5558 5551 5547 5545 5545 5544
5605 5599 5595 5590 5586 5582 5578 5576 5574 5572 5571 5569 5566 5564 5562 5560 5556 5552 5549 5546 5543 5539 5533 5529 5528 5528 5527
5583 5580 5575 5569 5564 5562 5558 5554 5554 5552 5552 5551 5548 5546 5544 5541 5539 5535 5532 5528 5525 5521 5517 5513 5511 5512 5512
5561 5557 5553 5549 5543 5538 5537 5534 5534 5533 5533 5531 5529 5527 5526 5523 5521 5517 5514 5511 5507 5504 5500 5498 5496 5496 5497
5537 5533 5531 5526 5522 5517 5514 5514 5514 5511 5509 5510 5508 5509 5507 5505 5502 5499 5497 5494 5491 5487 5484 5481 5480 5480 5480
5512 5514 5508 5504 5497 5495 5493 5493 5492 5490 5488 5489 5487 5487 5487 5486 5484 5481 5478 5477 5473 5470 5468 5466 5464 5463 5464
5487 5489 5483 5481 5474 5472 5470 5468 5470 5468 5464 5466 5468 5466 5465 5466 5464 5462 5460 5459 5456 5454 5452 5451 5450 5450 5451
5464 5461 5458 5453 5448 5443 5443 5441 5443 5443 5439 5438 5446 5444 5442 5445 5445 5443 5441 5440 5439 5438 5437 5436 5436 5437 5439
5436 5431 5427 5421 5419 5411 5411 5410 5413 5409 5416 5411 5418 5418 5420 5422 5423 5423 5423 5423 5422 5422 5421 5421 5422 5424 5425
5397 5393 5389 5385 5380 5378 5376 5375 5379 5379 5384 5384 5389 5393 5397 5400 5402 5403 5404 5404 5404 5405 5406 5407 5408 5410 5411
5352 5347 5343 5342 5341 5340 5344 5345 5348 5352 5355 5355 5363 5368 5373 5378 5382 5384 5386 5385 5386 5389 5391 5393 5395 5396 5397
5319 5316 5312 5310 5309 5312 5318 5324 5329 5332 5334 5337 5343 5347 5352 5358 5362 5365 5366 5369 5369 5371 5376 5379 5382 5383 5384
5299 5294 5291 5289 5289 5291 5297 5304 5309 5316 5319 5322 5326 5328 5332 5338 5343 5347 5349 5352 5353 5356 5361 5366 5369 5370 5371
5287 5280 5278 5276 5276 5279 5284 5287 5296 5302 5306 5309 5312 5313 5315 5320 5326 5330 5332 5336 5339 5343 5349 5352 5355 5358 5359
5277 5270 5268 5268 5268 5271 5274 5278 5286 5290 5294 5299 5301 5301 5303 5309 5313 5316 5320 5324 5327 5332 5336 5339 5342 5345 5348
5268 5264 5262 5262 5262 5263 5266 5271 5277 5280 5284 5289 5291 5291 5294 5299 5302 5305 5310 5312 5316 5320 5324 5328 5331 5333 5336